Wind_Speed
12 12 12 11 11 11 11 10 9 9 9 8 8 7 7 7 6 6 6 6 7 7 8 8 9 10 12 13 13 14 13 10 8 10 10 6 7 7 6 6 8 10 13 12 10 9 9 10 11 10 10 8 6 4 2 2 3 3 0 2 1 3 3 2 1 4 5 5 8 8 7 7 8 7 6 4 4 7 6 6 9 8 8 14 21 24 24 22
13 13 12 12 11 11 10 9 9 8 8 8 7 7 7 7 7 7 7 7 8 8 9 9 10 11 11 12 12 13 12 10 13 12 6 5 8 7 6 7 9 10 13 13 11 10 9 8 8 9 8 6 4 2 2 2 2 2 1 1 1 3 4 3 2 3 4 4 6 9 7 6 8 8 6 6 8 7 7 8 10 13 15 18 22 23 22 21
13 13 13 12 12 11 11 10 9 8 8 8 7 7 7 7 8 8 8 9 9 9 9 10 10 11 10 11 12 11 10 11 12 5 2 3 5 4 5 9 9 11 14 11 10 11 10 7 7 9 8 6 4 3 3 1 1 2 0 1 2 5 5 6 6 2 3 3 6 9 7 5 7 7 5 6 8 7 7 9 11 13 15 17 19 21 21 20
13 13 12 12 12 11 11 10 9 9 8 8 8 8 8 8 8 9 9 10 10 10 10 10 10 10 9 10 11 8 8 11 4 7 6 4 1 4 7 10 11 13 12 9 8 10 10 10 8 9 8 7 4 5 5 0 1 4 2 3 3 6 4 4 7 5 5 6 6 7 7 6 8 7 5 6 7 6 6 9 11 13 16 18 18 19 20 19
14 13 12 12 12 11 11 10 10 10 10 10 9 10 10 10 10 11 11 10 10 10 10 9 9 9 9 10 7 5 7 6 5 10 6 4 3 5 8 11 13 12 10 8 7 9 10 10 9 8 8 7 5 5 3 1 2 5 2 4 4 4 4 4 5 4 3 4 5 7 7 6 7 6 5 6 4 4 6 8 12 14 16 18 18 18 18 17
14 13 13 12 11 11 11 10 10 11 11 11 11 11 12 12 13 13 12 11 10 10 9 9 8 8 9 8 4 4 8 0 7 7 5 4 4 7 9 11 14 10 9 9 8 9 9 10 9 8 7 6 6 4 1 2 3 4 2 4 4 5 3 2 3 3 2 3 5 4 4 6 8 6 5 5 3 3 6 9 13 15 17 18 18 17 16 16
15 14 13 12 11 11 11 11 11 11 12 12 13 14 14 15 15 15 14 13 10 9 9 8 8 7 8 7 3 7 8 3 9 6 5 4 5 8 10 11 12 8 8 10 9 9 8 10 9 7 8 7 5 4 3 2 4 4 2 3 3 3 4 3 2 2 2 3 2 3 1 2 5 4 1 2 2 4 7 9 13 15 17 18 17 16 15 15
14 13 13 12 12 11 11 11 11 12 12 13 14 15 16 17 17 17 15 13 9 8 8 7 7 7 7 5 5 8 4 7 9 5 4 4 6 7 10 10 11 9 9 10 8 8 8 9 10 7 8 5 3 4 4 4 5 3 2 3 4 3 4 4 4 2 1 2 5 7 1 3 3 2 4 4 5 6 8 11 14 15 17 17 16 16 15 14
14 13 12 12 12 11 11 11 11 11 12 13 14 16 17 17 17 15 14 11 8 7 7 7 6 7 6 4 9 6 4 9 7 5 4 5 6 7 10 10 10 10 10 9 7 9 7 8 9 6 7 5 3 4 5 5 2 3 3 2 3 4 5 5 5 3 2 2 6 9 5 6 5 5 5 7 9 7 10 12 14 15 16 15 15 15 14 13
14 13 12 12 11 11 11 11 11 11 12 13 15 16 17 15 14 12 10 7 5 5 5 6 6 6 5 6 11 3 6 6 6 5 4 5 6 8 10 8 8 9 10 8 8 10 8 7 5 4 7 6 5 5 3 5 2 3 3 3 2 4 6 5 5 3 4 4 4 7 6 6 3 2 4 8 10 9 12 13 14 14 16 15 14 14 13 13
15 14 13 12 11 11 10 11 11 11 12 14 15 16 14 12 10 9 6 4 4 4 4 5 5 6 7 10 8 2 4 3 5 5 4 5 5 7 8 7 7 9 9 7 9 10 9 6 5 4 5 3 4 5 3 4 4 4 4 2 1 1 6 6 5 3 3 4 4 9 9 6 5 2 3 6 8 9 12 13 14 14 14 14 14 13 11 11
16 15 14 13 12 11 11 11 11 12 13 14 14 13 11 10 9 6 4 3 3 3 3 4 5 5 8 10 3 5 4 3 4 4 4 4 4 4 5 6 7 9 8 7 8 9 9 5 5 9 5 4 6 5 2 3 5 6 5 2 2 2 3 7 6 3 1 4 10 12 9 5 2 1 2 6 7 8 12 13 14 14 13 13 13 12 10 11
17 16 15 13 12 11 11 11 12 13 14 14 13 9 9 9 7 3 2 3 3 2 2 4 4 5 9 4 6 5 3 3 4 3 4 4 3 2 4 6 7 8 8 8 7 8 9 5 7 10 7 7 7 4 2 6 7 7 6 5 3 4 0 7 5 4 5 6 12 9 4 6 7 4 4 8 7 7 11 13 13 13 13 13 12 11 11 11
17 17 16 14 13 12 11 11 12 14 14 14 11 7 8 8 3 1 3 3 1 1 2 4 3 4 8 2 8 3 3 3 5 5 5 4 4 3 3 5 7 7 7 7 6 7 8 7 8 10 8 9 8 5 5 8 6 8 7 6 4 2 2 4 3 4 6 6 11 6 2 6 6 5 5 7 5 6 10 13 13 13 12 13 12 11 11 11
17 17 17 15 13 12 11 11 13 14 14 14 10 7 7 5 1 1 3 4 1 1 2 5 3 5 6 4 8 4 6 7 7 6 5 5 6 4 5 6 6 7 7 6 6 6 7 9 8 9 7 7 8 8 8 6 6 8 6 7 4 2 0 1 2 4 6 8 8 4 3 7 6 6 6 6 4 6 9 12 13 14 13 12 12 11 11 11
17 17 17 16 14 12 11 11 12 13 14 13 9 6 6 3 2 1 3 3 3 2 2 5 5 9 6 5 8 6 8 7 5 5 4 5 6 2 6 6 6 7 7 7 6 6 8 9 8 10 7 4 7 8 6 6 7 7 6 6 1 4 1 1 4 3 5 9 6 4 5 6 6 6 6 5 5 9 11 12 13 14 14 12 11 11 11 11
17 18 17 16 14 12 11 11 12 13 13 13 9 6 5 3 4 3 3 3 3 2 4 8 6 8 4 6 8 7 6 5 4 4 3 4 4 3 7 6 7 8 8 8 7 7 8 8 8 8 7 7 7 5 5 7 5 4 6 3 6 6 1 2 3 3 5 6 4 6 7 6 8 9 9 8 10 13 12 12 13 13 13 12 11 10 11 11
17 18 18 17 15 12 11 11 12 12 12 13 9 6 5 4 4 5 6 3 1 4 9 9 8 6 2 6 5 3 5 5 4 4 4 3 3 5 7 6 6 8 9 8 8 9 8 7 8 7 7 8 5 4 6 5 4 3 3 2 5 4 2 1 2 1 6 5 3 7 7 7 11 11 10 11 13 14 12 12 12 13 13 13 11 11 11 11
18 17 18 17 15 12 10 10 11 11 12 12 10 8 6 5 5 7 8 7 5 4 3 3 4 2 5 5 2 3 5 5 4 5 5 5 5 7 6 4 7 9 9 7 8 9 7 6 7 6 7 8 7 9 7 4 7 7 5 2 3 2 1 2 1 1 4 6 3 4 5 7 11 13 12 13 14 13 12 12 10 11 12 12 12 11 11 11
18 18 18 17 15 13 10 10 10 10 11 11 9 7 6 3 3 4 8 10 5 4 4 3 2 1 5 5 4 5 7 6 6 5 5 5 6 7 7 6 8 8 8 7 7 6 5 6 7 7 8 7 8 9 5 6 8 9 9 4 5 4 3 5 5 2 3 4 4 8 8 6 8 11 12 13 14 13 13 13 11 11 11 11 12 12 13 11
18 18 18 17 15 13 10 10 9 8 10 11 8 7 4 5 3 2 1 5 2 2 2 4 4 2 4 3 2 3 7 6 5 4 5 5 8 7 7 7 7 7 7 5 3 3 3 6 8 8 5 4 3 1 3 7 10 9 9 7 4 6 2 5 5 2 2 2 5 8 10 12 11 10 11 11 13 14 14 13 13 13 12 11 11 12 13 11
18 18 18 17 15 13 11 10 9 7 9 11 10 6 6 9 6 6 6 4 5 2 1 2 2 2 5 0 2 2 7 5 5 7 5 6 8 6 5 7 9 6 6 3 2 4 6 8 10 5 1 3 4 3 6 9 10 9 7 8 5 3 5 4 3 2 1 3 0 1 3 10 15 13 13 13 13 13 13 14 13 13 12 11 11 12 12 12
19 19 19 17 15 13 11 9 8 8 8 11 10 4 6 8 8 7 8 7 4 5 5 3 4 5 6 3 4 5 9 3 5 8 6 8 8 4 4 7 7 3 6 7 7 6 4 3 4 1 4 4 7 7 9 8 8 9 7 8 5 7 6 4 3 2 3 3 1 2 3 3 8 10 12 13 12 10 12 14 13 12 12 12 12 11 12 13
19 19 19 17 15 12 11 9 8 9 7 10 8 4 5 7 10 9 8 8 3 5 2 1 2 2 4 2 3 7 6 1 2 8 8 9 5 2 4 4 4 4 5 6 8 9 4 5 4 3 1 6 9 8 9 8 7 8 8 9 8 5 4 1 1 3 5 5 4 5 4 2 2 5 8 9 9 8 9 12 12 12 13 12 12 12 12 13
20 20 19 18 15 12 11 10 8 7 6 9 5 2 5 7 9 9 7 7 4 6 4 4 3 1 4 3 4 6 1 4 1 6 7 7 3 1 3 2 5 4 5 5 8 8 2 6 3 4 4 7 9 8 8 7 7 7 9 10 12 12 5 2 2 4 6 5 5 7 5 2 3 7 7 7 8 9 9 11 12 11 11 12 12 13 13 13
20 20 19 18 16 12 9 6 3 5 7 6 1 2 6 7 9 8 6 6 5 7 6 7 4 3 5 6 4 2 4 6 4 5 4 4 4 4 3 4 4 2 3 5 7 4 3 6 1 5 5 6 8 8 8 7 7 6 5 6 9 9 6 5 7 6 6 4 3 6 6 1 4 5 6 8 9 9 10 11 12 10 9 9 10 12 13 13
21 20 19 17 16 12 7 4 4 6 7 1 2 4 7 7 8 5 5 6 5 4 4 6 3 2 4 3 3 2 2 6 6 5 4 3 4 5 4 3 2 1 3 6 4 2 3 3 2 4 5 7 7 6 6 6 8 4 4 3 4 4 7 10 9 7 6 6 5 6 6 3 2 1 4 8 9 10 11 11 11 10 10 11 10 11 13 13
21 21 20 16 14 12 9 8 9 9 3 4 2 6 7 8 8 4 6 5 4 3 2 5 4 1 3 3 5 5 2 4 4 6 6 3 5 5 4 2 2 2 3 5 2 4 3 3 4 6 6 6 2 2 2 4 10 6 5 4 7 6 9 9 8 8 5 5 7 5 5 3 2 3 2 4 5 7 8 9 11 10 11 12 11 12 13 14
22 21 20 16 12 10 8 8 11 10 5 5 5 7 7 8 6 5 7 4 3 3 2 4 4 6 6 6 5 3 2 3 3 6 8 6 5 6 5 0 2 3 3 7 4 5 2 1 0 5 6 2 3 5 3 5 8 6 6 6 7 7 8 7 7 7 4 4 8 6 4 4 1 4 2 3 2 2 3 6 8 10 12 11 11 11 12 13
23 22 20 16 9 5 5 7 13 14 8 6 7 8 10 8 5 7 7 2 4 5 4 3 4 6 7 8 7 4 4 3 1 5 7 5 5 6 5 1 4 6 5 6 4 4 3 1 1 5 5 5 4 1 1 7 8 6 5 7 7 6 5 5 6 4 4 6 9 7 5 4 2 3 4 2 1 3 3 6 4 6 9 10 11 10 9 11
24 22 19 16 8 4 6 5 7 9 7 8 9 10 10 6 5 8 4 1 3 6 6 6 5 6 8 9 5 5 5 4 4 7 7 6 7 8 7 6 5 6 6 7 5 4 6 7 4 2 2 3 4 4 3 5 7 5 6 7 6 5 3 5 6 5 6 8 6 6 6 6 4 2 3 2 3 1 4 5 4 5 6 8 10 11 9 9
23 21 18 16 10 10 12 5 2 2 5 7 8 8 7 5 8 7 1 2 4 5 5 5 7 6 6 6 3 4 5 4 5 6 4 4 6 4 2 3 2 4 6 6 6 6 7 6 4 4 4 5 7 6 6 6 5 6 7 6 5 3 2 5 7 6 7 8 6 5 6 7 2 4 5 4 3 3 4 4 7 7 6 7 9 10 7 3
23 21 18 15 12 12 13 9 5 3 4 7 8 7 6 6 7 5 2 4 4 4 2 3 5 5 6 6 4 5 3 2 4 3 2 2 3 2 1 4 4 5 5 1 3 5 6 6 5 6 7 5 8 7 3 5 5 5 7 5 4 4 4 6 7 7 8 9 8 4 4 4 2 4 1 1 2 6 6 2 6 8 7 8 8 8 5 3
22 19 15 12 11 12 12 11 9 6 5 8 8 6 8 9 5 3 3 4 5 3 3 4 5 6 7 7 5 6 5 3 4 3 3 5 5 4 5 2 3 6 5 3 3 3 2 5 5 2 3 4 7 6 7 6 1 5 6 5 5 6 6 5 6 5 5 6 6 6 3 2 2 3 3 2 2 5 6 4 4 0 5 8 9 8 6 5
20 13 9 8 9 10 12 13 11 8 7 7 7 7 9 9 5 4 5 3 5 5 7 6 6 8 8 5 4 5 7 2 4 4 5 5 3 2 3 4 2 5 5 3 2 2 5 2 6 0 1 1 6 4 6 9 5 4 4 5 7 6 5 6 8 8 6 8 4 5 3 3 4 4 3 1 2 2 4 7 10 9 5 3 8 9 8 5
16 8 6 7 8 7 10 13 12 10 9 7 7 8 8 8 6 3 1 3 3 5 8 7 7 8 8 6 4 5 6 3 4 6 5 2 1 2 2 3 3 5 6 5 2 1 4 2 8 5 3 3 5 4 4 7 5 2 3 5 5 2 5 7 8 8 6 7 5 4 3 6 5 4 5 6 5 3 6 9 11 9 8 5 4 6 7 6
14 8 8 8 8 6 9 12 11 11 9 7 8 8 7 8 7 2 2 2 0 3 6 6 6 6 6 6 6 8 7 5 5 5 5 4 2 2 3 3 2 5 6 6 4 2 4 1 6 4 4 4 3 6 8 6 7 6 2 6 5 1 2 6 6 5 5 7 6 7 7 6 5 4 5 4 6 7 10 11 11 7 7 7 5 4 3 6
14 10 9 6 8 7 9 11 12 11 8 7 10 10 9 7 4 2 1 1 2 5 7 6 4 4 6 5 6 10 8 6 7 5 4 4 4 2 2 3 3 2 5 7 4 2 4 4 5 3 3 3 5 7 9 7 8 10 6 8 7 2 2 4 4 6 7 6 6 9 10 3 2 2 5 2 5 8 10 10 10 8 8 7 6 5 4 3
11 9 5 6 8 7 10 12 12 9 7 8 10 8 9 9 4 2 3 4 5 6 7 8 4 3 6 7 2 9 9 6 5 4 5 3 4 2 1 0 3 3 2 7 6 2 3 6 2 4 2 2 5 7 8 6 8 9 7 6 5 4 4 3 2 5 7 7 6 7 7 1 5 3 3 2 4 7 8 8 8 7 7 5 6 5 5 5
10 7 2 8 9 9 11 12 10 8 8 10 9 8 10 10 6 5 5 6 7 5 6 7 5 4 6 6 4 3 7 6 3 4 3 4 3 4 3 1 1 2 1 5 6 2 3 5 3 5 4 3 4 4 3 1 1 4 5 6 4 3 5 4 3 5 6 6 6 7 4 3 3 0 2 2 4 6 7 7 6 6 7 5 4 4 3 3
8 6 2 7 9 13 13 10 9 7 8 9 10 11 8 5 6 8 8 8 7 6 6 7 5 5 5 6 6 4 5 5 5 5 2 4 5 3 3 3 1 1 2 6 5 1 2 5 5 4 4 1 3 5 6 5 5 5 4 5 5 4 5 5 5 7 6 6 6 7 5 4 4 1 1 2 3 5 7 7 6 6 7 5 3 3 2 2
8 3 3 6 10 16 12 8 7 7 8 8 10 11 4 0 5 8 9 9 9 8 6 6 7 7 5 6 6 5 5 5 6 5 4 5 4 4 6 4 0 3 5 5 1 3 3 5 6 7 6 3 5 5 5 4 4 6 6 6 6 5 5 5 6 6 6 7 8 8 6 2 2 2 1 2 3 5 6 6 6 6 6 5 4 4 3 3
5 1 6 8 12 14 10 8 8 8 9 9 10 9 4 4 9 9 8 10 9 8 7 7 8 8 7 7 5 4 6 6 5 3 2 3 3 8 7 4 1 4 6 5 1 3 2 4 6 8 6 4 2 3 2 2 4 7 8 6 5 6 6 5 6 6 6 8 8 8 6 1 1 2 1 3 3 5 6 6 6 6 6 6 5 5 4 4
5 4 4 9 12 12 8 7 8 8 8 10 10 9 7 7 10 10 9 10 9 8 8 8 8 8 7 6 5 5 7 6 5 3 4 4 5 8 6 4 4 7 4 4 4 2 2 3 3 6 6 5 6 5 5 5 5 7 6 3 3 7 8 8 7 6 6 7 8 8 6 2 2 0 2 3 4 6 6 7 8 8 7 7 6 4 4 4
6 5 3 7 11 11 8 8 8 7 8 11 12 11 10 9 10 11 10 10 10 9 8 8 9 8 6 5 6 7 6 5 5 5 4 4 6 7 4 5 5 7 2 7 8 5 5 4 2 5 7 4 1 1 2 2 3 5 4 2 4 7 9 7 5 6 6 5 7 6 3 4 4 2 3 5 5 7 7 8 9 9 9 10 8 6 5 5
5 4 3 6 9 8 8 8 10 9 7 9 10 11 13 11 10 12 12 11 10 10 10 8 8 8 7 7 8 8 7 6 6 2 3 5 5 6 5 6 6 2 8 6 6 7 5 5 5 7 8 7 4 3 3 3 5 6 4 4 5 6 7 6 5 6 5 5 6 2 2 0 3 3 4 5 6 7 8 9 10 10 11 11 11 10 9 8
4 4 2 2 5 6 7 8 9 9 8 8 5 7 13 14 11 12 12 10 9 10 11 9 7 8 9 9 9 8 9 9 7 4 4 8 6 7 6 6 6 4 6 2 6 5 5 6 8 9 10 10 8 6 5 4 7 9 7 5 5 6 8 8 6 7 6 7 6 1 4 2 0 3 4 5 7 8 9 10 11 10 10 10 11 12 12 12
4 4 3 2 2 5 6 7 9 11 12 10 7 7 11 14 13 11 11 11 12 10 9 10 11 11 11 10 8 8 8 9 7 6 5 8 6 7 8 7 6 8 6 8 7 3 6 8 7 8 8 9 8 7 7 7 7 7 6 7 6 7 8 8 9 8 6 6 5 2 2 1 1 1 1 4 6 7 9 9 10 10 10 10 10 11 12 11
4 4 2 1 4 7 6 5 6 9 12 10 8 9 10 12 14 12 9 10 12 11 11 11 12 13 14 11 8 8 7 7 7 6 6 7 8 5 6 7 8 10 8 9 5 3 6 6 3 3 5 8 8 6 7 8 7 6 6 7 6 7 7 7 8 7 4 4 5 4 2 0 2 2 1 4 3 4 6 7 9 11 11 11 11 11 11 10
4 5 4 3 6 8 8 7 6 8 9 7 7 10 10 11 14 13 11 10 10 11 13 14 13 13 15 13 10 9 8 7 7 7 6 8 8 6 5 5 6 8 7 7 5 4 3 3 3 4 7 9 9 7 6 8 8 7 7 6 7 7 7 5 5 5 4 4 4 3 2 2 2 1 2 3 1 2 5 7 9 10 10 11 12 12 11 10
5 5 4 5 6 6 7 8 7 7 7 7 8 9 10 12 14 13 12 12 11 11 13 15 16 13 13 15 15 13 10 8 8 8 7 8 8 6 6 5 4 6 6 5 4 4 4 3 1 4 8 7 7 6 6 7 8 10 9 8 9 8 5 3 2 2 4 5 3 1 1 1 4 3 2 1 2 3 5 7 9 9 10 11 12 11 10 10
6 4 3 5 6 5 6 7 7 8 7 7 8 9 10 13 13 13 11 9 10 15 12 11 14 12 12 15 15 11 10 9 10 10 7 8 8 8 7 6 5 6 6 5 5 4 5 5 3 4 6 5 5 4 5 6 7 9 6 4 6 6 4 3 3 2 3 6 4 1 0 0 5 6 3 2 3 4 5 6 7 9 10 11 11 10 8 9
Wind_Direction
6 6 8 12 15 16 16 16 17 19 22 22 21 18 11 3 353 344 339 332 328 323 322 326 328 327 326 328 331 333 330 320 292 249 232 261 300 280 262 236 215 194 182 197 212 211 216 225 231 239 245 246 242 255 265 244 279 275 5 38 20 63 64 245 335 87 133 141 135 160 173 142 134 130 135 151 119 109 115 120 114 111 107 106 119 132 139 143
7 6 8 11 13 15 13 13 15 16 16 13 12 9 3 354 344 338 331 327 324 321 324 324 328 329 325 328 331 331 331 304 267 247 225 275 289 263 238 214 202 186 182 202 214 213 224 224 223 233 244 250 236 236 267 223 232 268 60 59 290 88 104 136 80 66 120 137 151 170 179 151 139 137 158 158 129 139 140 129 123 113 110 114 126 135 140 145
8 6 6 7 8 8 7 7 8 11 9 4 3 357 352 347 340 334 327 324 320 317 317 318 325 328 325 327 329 332 327 290 257 220 107 326 289 239 208 196 190 178 186 214 225 223 246 264 244 232 246 254 240 250 257 200 251 289 125 164 128 113 104 103 112 102 107 151 183 169 170 162 142 141 169 162 138 153 152 141 136 126 128 131 135 139 144 150
10 7 6 5 4 3 1 360 359 0 358 353 351 344 341 338 332 328 325 321 317 317 316 315 320 322 326 327 332 342 308 275 236 98 62 4 349 184 180 178 174 174 197 241 249 240 261 274 258 241 253 260 237 248 263 337 332 303 330 359 63 107 102 104 126 142 152 179 194 164 168 167 145 147 167 166 151 151 160 153 140 138 140 138 142 145 148 154
10 8 5 3 1 359 356 352 352 350 346 343 339 336 332 328 327 325 323 322 318 318 315 313 316 319 325 326 339 342 284 259 101 80 56 35 93 150 160 168 166 173 216 248 245 242 254 258 249 240 251 264 243 231 250 16 332 296 355 26 3 60 102 131 114 117 161 187 193 172 174 166 143 147 176 184 162 137 159 156 142 142 143 143 146 148 151 156
10 8 4 0 357 355 352 349 346 342 339 336 331 328 325 322 322 320 321 323 318 317 316 316 317 319 324 330 351 284 267 299 82 76 63 68 106 139 154 164 165 182 234 235 232 235 239 243 238 235 240 254 257 255 323 26 325 304 26 53 6 11 45 80 91 128 186 204 194 172 181 175 152 154 198 197 99 120 175 152 139 141 145 147 147 150 155 157
11 9 4 358 354 353 350 345 343 341 335 331 329 325 322 320 319 317 318 318 317 315 314 315 315 319 326 331 316 247 248 68 80 81 62 95 121 137 155 165 174 200 234 226 230 233 232 234 231 240 247 257 265 269 348 335 265 283 341 24 10 13 23 11 27 147 188 217 162 63 330 191 154 155 208 271 68 148 176 141 134 140 147 148 148 154 153 155
11 8 4 358 353 351 346 343 341 336 332 328 326 322 320 318 316 315 314 315 314 307 307 314 315 318 334 332 271 238 219 72 83 86 54 106 132 147 161 173 197 221 233 228 232 233 235 237 236 248 252 266 288 264 316 292 241 274 336 16 339 358 50 14 352 26 74 208 106 93 122 71 77 107 80 277 247 164 160 141 137 143 148 150 152 155 152 156
10 8 4 358 353 348 343 340 336 331 328 324 322 319 317 315 313 312 311 314 308 301 306 308 309 316 340 314 266 247 98 74 91 102 82 122 151 168 179 189 206 222 232 232 237 241 239 235 236 263 281 296 303 272 309 292 243 341 336 62 338 346 40 25 16 38 96 123 110 117 131 96 105 136 122 249 245 168 160 148 142 148 149 152 155 153 152 155
9 7 2 359 352 347 342 336 330 327 325 323 322 319 317 316 314 314 312 312 306 301 302 302 311 313 304 262 265 265 95 91 107 125 134 151 169 181 203 211 207 222 234 229 231 238 239 255 271 301 292 286 273 265 295 297 333 340 299 84 28 359 36 29 36 69 114 83 110 137 126 90 77 144 153 241 239 177 162 148 147 155 151 154 155 150 153 157
9 7 2 358 351 347 340 333 329 326 326 327 326 324 323 322 321 321 315 310 316 309 304 300 303 306 281 262 278 26 117 123 111 137 157 165 185 193 217 226 218 226 234 227 224 234 239 274 311 268 268 293 270 260 254 296 317 281 257 132 135 33 41 35 44 68 130 91 115 133 116 71 7 356 154 228 230 182 159 149 155 158 152 155 153 148 155 160
7 6 1 356 350 347 340 334 330 328 330 330 331 329 326 328 326 327 322 320 328 315 303 295 300 315 284 266 309 72 121 141 123 146 160 175 198 209 231 226 224 232 238 236 220 229 243 272 282 255 285 324 277 277 309 292 268 249 242 223 208 187 43 38 47 42 83 126 129 123 112 115 158 155 219 255 251 197 163 155 161 158 153 155 151 151 158 160
6 5 0 354 349 346 340 336 332 331 333 334 337 333 330 334 329 335 351 339 340 324 289 293 308 290 276 281 77 94 146 136 138 163 178 195 199 202 237 221 222 236 246 258 232 215 235 258 269 270 296 287 280 350 321 264 259 252 240 242 247 217 310 30 38 62 65 123 143 143 137 153 176 191 246 257 265 228 176 158 164 159 155 156 154 157 159 158
4 3 360 353 348 344 341 336 332 333 333 337 339 336 339 337 336 54 6 349 347 325 275 289 320 267 265 56 79 106 167 156 173 182 184 195 195 173 191 211 218 227 233 262 255 212 227 251 262 274 277 264 292 347 261 249 252 252 243 238 246 240 301 354 6 77 85 136 161 186 185 138 177 190 221 247 261 245 192 162 165 161 158 160 157 161 159 157
1 2 359 353 347 342 340 335 332 334 333 337 339 339 343 335 43 101 357 1 315 288 305 287 259 239 251 114 94 106 160 177 179 176 178 193 212 176 153 191 206 210 220 245 248 217 231 248 249 256 246 233 266 276 253 245 239 243 245 242 229 126 285 275 50 76 110 144 171 200 135 134 181 185 195 230 228 239 207 169 167 164 161 164 160 163 160 157
358 359 356 352 346 340 338 333 330 334 332 335 334 331 339 318 201 207 338 355 291 284 299 274 218 225 272 84 119 163 173 169 149 154 176 213 241 172 141 174 191 197 214 226 228 221 230 240 244 257 262 234 242 254 257 250 236 233 240 256 329 70 147 126 36 3 123 133 173 166 125 149 181 191 197 202 205 226 209 174 172 168 162 168 165 163 162 159
356 356 355 351 345 339 336 330 330 334 331 334 329 317 331 303 220 223 287 311 305 286 251 277 270 243 271 101 153 179 153 131 136 155 155 218 251 149 153 178 184 188 200 206 213 222 223 227 236 248 257 246 244 254 259 254 243 226 234 279 28 38 46 90 6 286 141 128 169 133 130 164 161 178 196 191 205 216 198 176 177 170 164 171 170 167 167 163
353 353 353 349 345 338 331 327 329 331 330 332 325 301 308 299 257 252 277 299 306 252 247 261 277 266 160 133 166 143 121 124 141 166 147 170 205 176 184 193 174 181 195 197 203 216 211 209 226 232 231 230 241 249 240 262 305 288 262 353 39 32 2 30 347 224 144 127 125 119 126 155 153 168 194 190 199 208 190 179 181 172 169 172 171 174 171 167
351 352 351 349 345 334 327 325 324 330 330 330 329 312 298 288 276 259 249 226 210 256 268 211 244 285 96 117 119 103 125 133 158 185 159 152 183 190 203 205 180 190 201 188 188 207 208 207 222 234 232 220 209 224 241 299 313 294 281 298 73 54 255 159 78 33 119 103 109 149 142 158 163 168 190 192 189 200 188 178 185 177 171 174 175 175 172 176
350 351 349 348 344 333 325 318 319 328 323 325 327 298 278 264 242 215 212 219 237 323 5 47 319 354 98 109 109 123 139 163 202 195 145 162 193 194 194 198 190 200 217 198 171 189 225 224 219 227 240 239 216 216 246 296 286 279 279 263 140 166 215 124 100 78 77 82 180 193 162 168 187 175 186 193 185 196 193 179 184 183 176 179 178 173 171 179
349 350 347 347 343 332 320 312 315 318 314 318 305 272 324 11 324 350 258 215 171 346 337 38 350 13 65 57 85 162 175 180 204 157 137 184 209 200 177 190 207 204 219 222 133 140 237 245 236 232 243 319 330 237 266 273 271 271 277 274 200 180 167 95 96 102 55 321 205 180 167 173 190 192 187 193 193 194 192 183 183 185 183 184 180 175 172 175
347 348 346 345 341 332 317 307 306 301 307 305 281 268 18 21 340 334 314 250 131 143 252 103 222 140 92 92 85 231 226 176 151 146 154 207 213 209 165 189 225 203 170 208 206 178 208 234 241 235 83 350 311 301 277 265 271 272 262 272 264 151 136 140 144 141 331 308 35 120 212 171 169 182 182 188 200 195 189 190 187 184 184 187 184 177 174 174
346 346 345 343 341 332 313 300 298 292 291 288 282 315 17 0 335 326 290 268 137 166 208 176 223 148 130 172 129 219 242 184 151 137 147 218 214 222 214 200 229 214 161 203 232 229 214 216 239 100 96 249 252 250 262 260 260 262 259 270 254 159 175 203 158 183 261 280 320 322 282 146 144 172 178 184 195 190 189 192 189 188 187 190 191 181 179 177
346 344 344 342 338 330 312 299 289 276 264 274 287 0 0 337 333 327 291 272 176 153 178 114 279 133 107 102 157 237 258 83 177 123 142 227 218 173 247 226 234 225 181 204 240 259 292 47 43 22 162 242 250 235 240 253 251 244 247 270 274 221 204 284 127 213 239 223 237 264 234 142 136 195 183 179 188 185 190 192 189 191 188 189 195 189 186 182
345 343 342 340 336 331 315 291 265 251 249 262 263 20 334 332 334 322 297 267 183 137 155 176 214 116 100 161 204 254 229 119 81 105 145 251 282 207 247 224 243 232 139 177 242 258 302 64 51 282 248 237 249 243 229 242 261 250 232 238 265 278 291 354 287 251 253 220 207 251 256 164 188 219 202 176 188 192 189 194 192 191 190 192 197 193 190 186
344 341 340 338 335 327 303 278 258 256 260 258 179 21 324 332 331 314 286 254 182 143 167 177 179 142 149 186 187 233 204 155 88 95 166 272 299 280 254 176 230 320 111 201 245 255 90 74 20 258 250 229 238 253 238 235 258 261 242 224 245 277 287 276 274 266 268 276 200 228 271 281 166 225 227 184 190 202 192 196 197 192 194 200 205 198 191 187
341 340 337 335 335 327 299 305 325 276 260 242 72 327 322 333 322 300 266 249 180 150 172 151 130 160 165 173 188 245 181 129 124 150 185 240 226 235 244 216 218 130 176 227 240 187 135 114 201 235 245 230 227 240 219 217 249 266 30 333 277 277 262 258 268 264 262 293 281 236 255 272 128 293 239 185 186 203 197 196 197 197 200 202 213 212 198 192
340 338 334 331 333 322 299 300 297 273 288 39 344 306 327 324 304 253 256 265 134 139 181 122 95 198 188 171 220 266 74 131 189 152 137 208 230 240 252 257 299 127 178 257 259 136 180 190 189 218 234 231 228 40 100 207 253 285 20 314 282 266 254 258 265 264 270 296 286 251 240 257 142 118 211 202 204 209 211 206 193 198 207 202 209 217 210 200
339 336 330 329 329 318 304 294 277 274 328 354 302 308 313 299 287 234 257 278 143 166 155 113 143 189 203 187 195 241 163 192 271 114 139 202 226 264 285 53 302 278 209 264 299 89 138 280 193 244 256 299 21 41 29 258 264 316 346 280 272 267 254 258 260 268 293 280 274 261 242 266 198 131 143 263 251 171 251 249 207 202 212 208 209 219 223 211
337 334 328 324 325 325 311 275 252 259 292 306 293 302 290 275 258 241 248 238 165 158 139 161 175 172 200 199 175 181 184 175 91 135 171 198 181 221 258 176 255 256 207 235 268 78 99 220 252 263 299 355 350 21 306 274 281 316 299 248 241 239 239 250 252 271 283 256 263 268 261 278 262 144 137 188 115 114 216 254 239 216 218 218 216 216 229 231
334 331 323 314 305 273 266 256 241 247 262 283 288 286 274 253 239 255 261 179 172 155 163 187 175 170 211 223 187 164 187 171 160 190 192 176 179 196 205 200 224 238 211 206 209 146 163 192 181 202 288 313 263 213 183 248 270 270 255 242 225 209 221 257 241 228 247 254 257 260 274 284 261 145 94 68 51 79 232 246 255 250 233 225 225 214 209 237
331 327 315 300 283 247 242 260 353 270 247 272 278 268 262 234 233 250 230 169 189 169 181 181 173 191 215 237 227 159 183 174 172 227 240 191 192 179 203 253 246 233 226 195 171 164 180 187 138 146 198 250 252 220 183 201 228 243 245 242 236 216 210 246 240 222 237 249 232 230 266 275 261 68 35 7 3 305 262 212 208 221 229 222 227 226 202 217
330 322 309 292 269 240 239 259 278 262 257 262 258 253 252 239 240 252 196 176 145 136 166 157 170 197 206 214 194 158 183 164 164 225 280 273 252 149 183 299 303 274 270 238 177 184 178 167 166 182 173 203 256 254 215 189 190 227 240 227 228 234 229 240 241 231 243 240 205 183 272 260 119 85 58 345 317 283 280 209 189 197 202 214 219 224 207 182
329 318 306 289 263 235 230 237 230 236 259 247 240 237 236 241 251 290 248 172 122 134 170 166 177 193 221 229 168 165 213 166 153 209 195 219 240 174 150 163 274 285 295 291 264 269 244 156 168 240 122 163 258 291 323 321 245 225 246 246 241 246 253 267 264 252 280 274 197 169 239 274 99 125 158 157 180 271 300 28 35 29 174 201 207 196 191 198
330 318 302 283 263 236 218 217 212 226 244 232 232 232 229 237 235 248 249 162 138 178 171 177 207 201 213 229 141 187 246 202 156 218 222 227 244 106 96 94 44 318 313 292 259 282 298 132 128 62 33 259 287 331 316 298 285 234 233 240 244 259 272 274 281 286 307 308 258 186 188 78 97 131 105 343 248 292 332 53 49 18 33 162 183 170 165 180
333 314 283 248 238 223 204 202 201 214 231 226 229 229 226 240 246 257 280 111 148 189 173 180 221 227 205 186 162 194 228 219 182 203 208 234 332 76 54 57 38 327 318 317 317 219 272 143 134 182 217 228 289 318 265 269 296 271 213 249 259 296 313 287 283 290 283 277 262 211 165 113 127 131 68 338 311 17 14 52 63 34 26 52 123 140 146 145
328 297 268 224 198 187 186 190 193 206 224 230 230 235 236 236 243 292 36 82 66 218 213 201 199 234 230 184 173 179 188 200 200 206 196 185 176 137 121 97 26 323 328 313 302 337 312 259 142 200 237 184 220 281 261 258 287 268 246 328 319 78 308 291 286 288 268 255 253 245 227 168 162 157 92 356 331 15 25 45 61 51 38 36 54 74 123 138
315 286 267 208 170 171 179 181 190 206 220 229 232 241 253 246 220 227 219 217 244 222 239 247 189 206 252 235 180 164 181 196 173 199 234 162 142 155 170 137 127 337 324 292 284 20 307 261 146 141 267 182 176 250 252 221 237 261 300 332 310 256 239 252 262 273 265 259 260 257 249 208 105 106 110 67 348 11 16 36 49 45 39 17 22 48 42 81
287 266 246 165 159 172 176 177 193 213 220 225 229 229 245 252 230 201 214 225 241 225 233 254 241 195 236 262 212 151 183 216 166 196 244 159 127 163 216 135 130 128 309 293 302 10 271 271 163 147 251 233 189 225 242 201 198 237 271 274 251 262 278 253 258 278 278 280 273 256 250 80 54 62 100 38 9 26 18 28 40 47 57 22 354 23 35 38
271 259 164 137 158 168 167 179 199 218 219 223 235 228 229 236 217 190 212 226 229 230 247 253 237 211 223 260 298 174 198 235 233 225 204 141 149 184 170 187 206 126 144 263 276 275 250 280 251 184 195 233 219 224 263 308 211 230 248 250 234 248 274 279 270 251 256 272 272 270 271 94 84 279 95 33 4 30 30 37 38 38 61 59 4 4 16 47
273 265 126 131 159 160 163 189 205 216 224 226 239 239 235 244 218 191 197 224 233 234 264 280 266 244 230 238 259 232 205 228 249 253 198 157 188 195 135 136 213 273 234 229 230 222 270 291 281 231 217 243 49 29 1 355 334 312 296 286 287 278 277 282 266 247 242 254 261 268 269 121 125 251 81 52 0 30 34 38 47 43 49 53 42 23 355 73
260 262 104 132 163 164 174 208 208 216 228 225 236 239 227 253 239 209 185 207 234 234 237 263 271 271 261 246 245 222 204 214 222 221 211 204 190 120 106 110 152 277 276 275 34 58 327 301 285 269 279 337 54 43 348 332 303 288 280 280 284 276 268 265 267 273 278 282 277 261 254 116 90 299 72 72 25 41 35 24 39 56 53 38 38 42 17 44
257 315 112 146 173 180 200 224 214 222 232 233 242 240 199 182 228 223 194 201 218 225 221 226 243 250 247 246 244 212 205 210 213 220 256 240 131 99 109 130 213 234 255 283 72 98 284 267 259 266 274 284 241 200 237 270 264 258 247 250 271 282 285 277 280 295 289 284 286 269 257 115 118 265 67 89 69 57 42 25 32 47 54 43 39 47 35 40
297 306 134 155 181 198 222 231 220 220 224 235 243 234 215 218 232 228 210 205 207 214 223 226 232 237 233 231 232 217 205 200 198 209 278 265 126 112 127 148 226 241 250 338 18 85 257 250 244 268 258 232 224 211 197 199 228 252 244 239 284 291 292 282 278 283 272 282 301 287 283 41 84 258 33 53 66 66 51 34 38 43 44 40 38 50 53 43
294 267 175 157 183 208 233 244 254 252 228 229 233 230 225 221 232 239 232 222 218 220 227 223 221 227 220 209 224 228 215 222 224 197 232 245 131 124 150 161 230 254 71 27 346 313 281 288 279 269 270 267 260 273 266 236 239 257 256 260 271 277 284 289 290 276 268 300 318 297 303 6 350 334 27 23 31 55 51 37 39 41 35 32 30 36 50 45
290 252 203 165 181 213 238 251 272 279 259 239 226 227 231 224 217 227 237 239 225 221 239 238 215 213 215 207 221 228 209 220 249 221 210 231 170 138 154 187 229 300 69 50 312 285 278 285 271 264 278 296 324 338 319 307 286 281 279 268 266 274 282 286 281 276 289 307 296 280 121 113 308 334 9 20 25 41 46 37 35 38 33 31 31 33 42 50
279 281 274 194 188 209 226 238 249 254 263 269 251 223 229 231 219 203 209 232 231 218 231 240 221 214 216 208 216 227 205 202 227 230 221 240 217 139 140 216 227 105 90 211 242 252 273 262 237 234 252 271 287 298 294 280 277 288 298 286 275 277 277 274 273 287 309 295 276 77 99 173 353 4 347 8 26 35 43 37 34 39 39 37 40 40 41 47
272 301 339 351 257 223 222 232 234 238 244 249 258 250 231 229 229 207 192 215 233 225 221 225 222 228 228 212 214 226 207 198 217 225 223 243 233 150 149 222 211 142 163 233 217 215 274 266 234 217 235 259 268 276 283 280 274 282 293 290 287 283 280 282 283 283 288 282 288 24 53 266 104 186 245 31 33 39 46 43 41 43 44 49 51 47 44 46
304 302 321 339 271 260 270 283 267 254 247 240 245 253 243 230 230 223 204 212 223 217 221 225 216 221 230 222 217 230 220 206 219 226 223 239 246 206 175 202 189 163 199 235 208 199 267 279 285 266 268 271 261 257 269 269 266 264 266 275 284 281 280 290 294 294 290 282 291 301 282 25 22 300 24 54 37 52 57 48 45 43 44 52 54 48 45 46
334 328 334 325 283 272 274 275 267 254 248 248 245 243 245 243 237 231 218 218 219 206 214 232 227 218 226 223 214 224 227 221 235 237 214 219 240 237 218 224 197 177 208 228 192 176 237 291 337 298 278 266 243 236 254 258 262 260 247 251 263 266 269 282 295 298 286 265 255 258 252 181 189 257 72 83 38 55 63 51 48 49 51 57 53 43 36 35
324 318 323 307 288 277 264 253 249 248 241 235 234 234 239 240 240 242 227 212 225 224 208 218 229 225 225 225 220 222 220 215 239 247 218 211 229 220 205 235 230 199 216 228 190 180 216 251 259 244 261 254 208 210 251 258 263 262 245 232 238 246 252 268 304 314 298 291 261 177 311 241 165 143 104 101 64 64 73 64 56 56 57 60 59 49 34 27
319 282 274 281 278 277 269 252 241 242 242 238 235 236 243 240 235 244 237 199 221 246 237 222 229 228 224 223 218 221 229 223 228 238 223 208 216 211 200 208 227 236 235 214 193 212 242 261 248 233 260 247 165 177 275 270 256 257 248 226 234 244 243 246 274 275 272 293 290 190 328 118 144 149 182 173 108 90 86 76 71 70 65 59 61 59 46 33
Height
806 805 804 802 801 801 800 799 798 797 796 796 795 794 793 793 792 791 791 790 789 788 788 787 786 786 785 784 783 782 780 779 780 779 777 773 771 772 772 772 772 772 773 773 772 771 769 767 765 762 761 758 755 753 749 748 749 757 777 798 801 800 805 801 794 788 787 787 783 780 775 779 784 779 773 771 774 776 777 774 770 769 768 769 776 782 787 792
806 805 804 803 802 801 800 799 798 797 797 796 795 794 793 793 792 791 790 789 789 788 787 787 786 785 784 783 782 781 780 779 778 775 772 772 772 771 771 771 772 772 773 773 770 768 767 765 761 760 761 759 754 751 753 749 749 763 784 804 803 797 795 789 787 783 781 785 784 780 775 776 780 779 774 780 786 782 783 781 775 777 777 776 780 784 789 791
806 805 804 803 802 801 800 799 798 797 796 796 795 794 793 792 792 791 790 789 788 787 787 786 785 784 784 783 781 781 780 778 776 772 771 772 771 771 770 771 771 772 772 772 769 767 765 761 759 760 762 762 755 753 755 751 752 757 772 798 798 785 784 782 784 783 780 782 782 779 775 776 777 775 776 782 787 785 786 783 780 785 784 782 783 784 789 791
807 806 804 803 802 801 800 799 798 797 796 796 795 794 793 792 791 790 789 789 788 787 786 785 785 784 783 782 781 781 780 780 775 769 771 771 770 770 770 771 771 772 773 771 769 767 765 762 759 758 763 765 756 753 756 751 755 757 760 781 778 771 783 780 778 779 777 779 779 777 777 779 775 773 778 782 788 790 785 778 778 784 782 783 784 784 788 790
807 806 805 804 803 801 800 799 798 797 796 795 794 793 792 792 791 790 789 788 787 786 786 785 784 783 783 782 782 781 782 785 775 768 772 771 771 771 770 771 771 773 772 772 770 767 766 762 760 761 765 767 759 756 758 748 751 759 759 766 762 764 781 777 770 774 773 774 775 778 781 779 775 777 780 781 789 790 779 772 771 775 778 780 782 784 786 788
807 806 805 804 803 802 800 799 798 797 796 795 794 793 792 791 790 789 788 787 786 786 785 784 784 783 782 781 781 782 784 784 773 769 773 771 771 771 771 772 772 773 773 771 768 766 766 762 763 767 766 765 762 759 758 749 750 763 762 760 760 762 772 770 767 772 771 773 777 781 780 774 779 786 782 780 784 781 770 766 767 770 774 777 779 783 785 787
808 806 805 804 802 802 800 799 798 797 796 794 793 792 791 790 789 788 787 786 786 785 784 784 783 782 782 781 782 781 779 776 769 771 773 771 773 771 772 773 772 774 772 770 767 766 765 765 767 766 766 766 763 758 756 752 751 763 768 762 762 762 766 766 765 768 770 774 777 780 781 780 788 792 788 787 783 774 767 763 765 769 771 775 779 782 785 787
807 806 805 804 802 802 800 799 798 797 796 794 793 791 790 789 788 787 785 785 785 784 784 783 783 782 781 781 781 778 775 772 770 773 772 772 773 772 774 774 774 774 770 769 766 764 764 767 766 762 767 766 760 759 755 756 757 761 767 765 762 762 764 765 763 768 771 773 776 781 788 790 792 792 795 798 786 773 768 765 767 770 772 776 779 781 784 786
808 806 805 804 802 801 800 799 798 797 795 794 793 791 789 788 786 785 785 784 784 784 783 782 782 781 781 781 778 777 775 771 771 773 772 773 774 774 774 773 774 773 770 769 764 764 765 766 763 758 765 763 758 760 755 763 767 761 762 765 766 764 763 765 768 772 773 774 778 786 794 795 791 792 798 799 785 772 767 768 770 772 776 778 779 781 783 786
808 806 805 804 802 801 800 799 797 796 795 794 792 790 789 787 786 785 784 783 783 783 782 782 782 780 782 780 777 779 775 770 772 774 773 774 774 774 774 772 773 771 769 767 765 764 762 761 757 753 761 760 758 759 758 764 765 759 759 763 768 767 765 768 772 773 774 778 780 787 797 796 790 795 802 796 780 771 769 772 772 774 778 779 779 780 783 786
808 806 805 803 802 801 800 798 797 796 794 793 791 789 788 786 785 784 783 783 782 782 782 781 781 780 781 779 777 778 773 770 773 773 774 774 774 774 773 772 771 771 768 765 765 763 760 759 754 756 762 761 759 759 757 757 758 757 759 766 770 768 768 769 774 774 775 784 783 785 797 800 797 799 800 791 778 770 771 775 775 776 779 779 780 782 783 785
808 806 805 803 802 801 799 798 796 795 794 792 791 789 787 786 785 784 783 783 782 782 782 781 781 780 780 777 775 774 772 772 773 773 774 774 773 773 772 772 771 770 767 764 764 762 762 759 757 763 763 759 762 763 760 753 755 758 758 772 776 771 776 774 774 774 776 786 784 785 803 810 806 803 797 788 781 773 773 777 777 777 779 780 781 783 784 784
808 806 804 803 802 800 799 797 796 794 793 791 790 788 787 786 784 784 783 783 782 782 781 781 780 780 781 777 771 772 772 772 773 773 773 773 772 772 772 772 771 770 768 765 763 763 763 761 761 763 758 760 763 759 758 752 756 761 760 772 779 782 789 779 772 774 779 787 784 789 811 816 808 802 795 788 784 780 778 779 778 778 779 780 782 783 784 784
808 806 804 803 801 800 798 797 796 794 792 791 789 788 787 785 784 784 783 782 782 781 781 781 780 781 781 775 770 772 772 772 773 772 772 772 771 771 771 771 771 770 769 767 764 763 764 762 761 762 757 759 757 753 759 760 761 766 766 770 774 788 797 782 773 776 785 789 782 790 812 817 808 800 795 789 786 785 782 780 779 779 779 780 782 784 785 784
807 806 804 802 801 799 798 797 795 793 792 790 789 788 786 785 785 784 783 783 782 781 781 780 780 780 777 773 770 771 772 771 771 770 771 771 769 768 769 771 770 770 770 768 766 764 764 762 763 767 760 753 756 763 768 767 764 763 775 778 767 784 800 785 773 774 784 790 782 790 809 816 809 799 794 789 787 789 786 781 779 778 779 780 782 783 785 785
807 806 804 802 800 799 798 796 794 793 791 789 788 788 786 786 785 784 784 782 781 781 780 780 778 778 778 773 770 771 770 768 768 769 770 769 767 766 768 770 769 769 770 768 766 764 763 763 763 763 759 758 763 769 771 773 770 762 772 777 768 785 799 787 782 778 778 788 788 793 807 813 807 797 793 789 788 792 788 782 779 779 779 780 781 782 784 785
807 805 803 802 800 799 797 796 794 792 791 789 788 787 786 785 784 784 783 782 782 780 780 779 774 775 776 769 769 771 766 766 768 768 769 769 767 766 768 768 767 768 767 766 766 764 763 764 765 763 762 764 763 767 782 788 780 768 765 772 778 790 793 789 793 783 777 789 792 793 800 802 799 794 792 789 788 790 787 782 780 778 779 780 780 781 783 785
807 805 803 802 800 798 797 795 794 792 790 789 787 787 786 785 784 784 783 782 782 781 782 778 775 783 782 770 769 769 764 766 768 767 768 769 768 767 766 765 765 766 768 769 768 766 765 764 765 769 768 767 765 772 791 790 779 776 771 777 789 791 792 794 792 781 782 797 797 795 799 795 793 793 791 788 786 786 783 780 779 777 778 780 780 781 783 784
807 805 803 801 800 798 797 795 794 792 790 788 787 786 785 785 784 783 782 782 782 782 783 776 774 782 782 770 765 764 764 767 768 767 766 767 768 766 764 764 764 767 773 775 773 767 766 768 770 777 775 768 768 770 778 777 772 775 769 772 788 793 792 789 783 775 778 798 804 801 802 797 793 793 791 787 783 783 781 779 779 777 777 778 779 780 782 784
806 804 803 801 800 798 796 795 793 792 790 788 787 786 785 785 785 783 779 777 774 771 771 768 766 769 769 765 762 764 766 767 767 764 764 766 766 765 764 764 765 770 773 774 773 764 763 775 778 776 771 761 759 759 764 768 768 769 764 766 779 789 786 776 777 773 767 791 808 801 802 804 797 792 789 784 782 783 781 780 781 778 778 777 777 779 780 782
806 805 803 801 799 797 796 795 793 792 790 788 788 786 783 783 786 785 778 774 767 763 765 764 762 764 764 763 761 762 764 766 764 761 765 765 762 768 768 766 773 777 771 766 767 763 767 781 776 763 759 756 757 758 762 768 767 767 766 765 768 775 777 770 773 771 765 783 794 786 794 804 800 793 788 784 784 784 779 779 781 779 778 777 776 778 779 780
806 804 802 801 799 797 796 794 793 792 790 788 786 782 779 781 785 783 780 778 769 763 765 763 763 763 762 762 762 761 763 767 767 763 763 763 763 769 769 768 776 774 767 767 771 773 778 780 767 753 754 759 762 763 765 769 768 767 766 764 763 765 773 772 769 768 767 776 781 776 780 785 787 789 788 787 784 778 773 774 776 776 778 778 777 777 778 779
806 803 802 801 798 797 796 794 794 792 790 788 784 780 780 782 782 779 780 781 774 766 763 764 764 763 764 764 761 763 765 767 770 765 761 764 764 764 765 768 771 768 769 774 776 778 779 770 757 751 757 766 769 767 769 770 769 768 765 766 762 759 770 776 772 770 769 771 776 777 776 775 780 783 780 779 776 772 770 770 771 773 776 777 774 775 776 778
805 803 802 800 798 798 795 794 794 791 790 787 783 782 782 783 781 780 780 778 775 768 761 762 761 760 764 763 760 763 764 762 765 764 760 763 763 762 763 765 768 770 770 772 773 773 770 761 754 757 763 768 772 770 771 774 772 766 763 765 761 752 757 766 768 768 767 768 770 774 782 786 787 787 780 773 772 773 773 772 773 772 771 773 773 773 774 774
804 803 801 799 798 796 795 794 791 789 788 784 783 783 783 784 781 781 783 782 779 771 764 763 761 760 760 761 761 759 761 763 761 759 758 758 761 764 764 761 766 772 769 771 774 771 767 759 758 766 768 768 773 772 769 772 773 767 759 757 757 751 751 759 764 767 774 777 769 769 790 799 790 786 784 778 778 780 777 775 776 774 772 773 774 773 772 772
803 802 800 799 797 795 795 792 788 788 786 781 782 783 783 784 782 781 785 789 785 776 771 768 765 765 761 761 758 754 766 770 757 755 758 758 757 760 767 764 764 770 768 768 768 766 765 761 762 770 770 770 774 773 765 765 774 772 754 745 750 753 757 763 765 770 781 781 763 759 784 802 798 793 788 784 787 786 782 780 778 776 776 776 776 773 771 771
803 800 799 798 796 795 794 790 789 788 784 782 782 784 784 783 782 782 789 800 792 774 771 768 765 766 762 759 755 762 780 773 758 758 757 759 757 755 768 768 764 768 762 765 773 769 764 767 769 770 771 772 773 771 761 760 773 770 750 746 753 758 764 765 764 769 773 769 761 755 765 791 806 803 791 786 793 794 788 785 781 778 778 777 778 774 770 770
802 800 798 797 796 796 793 792 791 785 783 784 783 784 784 782 782 782 798 815 796 768 766 766 762 761 758 757 756 764 772 764 768 768 752 757 759 756 768 767 765 768 758 768 783 770 761 768 772 770 772 771 765 762 756 759 771 761 748 753 756 758 762 760 763 767 763 772 782 766 759 787 806 801 796 794 795 797 793 787 784 782 780 778 778 777 772 769
801 799 797 796 795 794 793 793 790 785 784 784 784 786 783 782 783 784 802 814 788 763 763 764 763 763 759 760 762 763 761 761 771 765 752 759 759 758 767 763 763 769 761 765 774 767 761 762 763 765 769 767 760 758 756 762 767 754 750 756 755 757 759 760 766 767 769 789 796 773 764 790 804 798 803 807 802 803 801 791 784 782 780 778 777 776 774 769
800 797 795 795 794 793 793 791 788 786 786 785 786 785 782 783 787 799 815 805 779 766 764 764 767 765 764 768 769 765 764 765 764 759 759 760 757 759 761 756 760 767 764 763 765 763 761 757 757 762 764 761 759 758 758 760 759 754 757 761 762 762 760 764 767 768 789 804 790 769 763 783 804 800 796 802 801 801 804 796 787 783 780 780 779 778 779 776
798 796 794 793 793 793 792 788 786 786 786 786 786 783 783 787 791 809 814 785 770 772 766 767 769 764 765 771 771 767 767 767 762 764 767 763 763 764 763 764 766 768 771 769 766 764 763 764 763 759 757 757 760 761 759 757 755 757 762 763 768 772 772 778 776 778 805 809 781 767 763 775 802 803 791 794 794 794 801 797 790 787 784 781 780 777 778 780
796 794 792 791 790 791 789 786 784 785 786 786 786 783 787 798 800 803 794 774 776 778 767 768 768 765 767 768 768 767 767 768 764 765 765 763 766 765 767 771 769 777 780 769 767 769 766 764 760 758 757 755 762 766 762 759 757 762 765 766 779 791 798 803 794 789 800 791 769 765 768 779 797 799 794 795 794 793 796 794 788 785 782 779 777 774 774 780
793 791 789 788 787 787 786 785 785 786 786 785 786 783 790 810 807 786 774 774 777 770 760 765 765 764 769 770 770 766 766 770 765 765 764 762 766 766 767 765 761 776 777 763 765 770 770 766 758 761 761 754 759 767 769 765 762 766 766 769 786 798 809 813 797 787 786 772 757 759 771 787 796 796 794 793 794 793 788 784 781 778 776 776 774 774 775 778
790 788 786 784 784 784 784 785 785 785 786 784 787 789 799 813 798 774 769 770 767 763 762 765 766 768 770 769 767 764 769 772 764 766 769 766 768 767 767 766 762 766 768 767 768 766 776 782 768 765 765 758 757 759 762 760 759 761 753 758 776 779 790 799 787 782 782 768 757 763 781 797 801 796 788 784 786 786 780 776 775 771 770 772 772 773 776 779
788 785 784 782 782 782 782 783 784 785 786 784 787 795 804 804 786 772 770 762 760 766 765 763 766 773 774 768 764 762 767 771 766 767 770 767 767 766 767 770 767 764 769 776 773 765 777 781 766 761 759 758 760 755 753 759 764 757 745 757 770 759 763 777 772 767 772 775 771 770 781 791 789 786 782 781 779 774 773 774 776 776 771 771 774 773 775 780
786 784 783 782 781 780 781 782 783 785 783 783 792 797 793 785 772 765 762 756 760 765 766 770 771 775 775 770 769 767 763 767 769 769 770 769 768 769 771 771 768 768 772 777 775 771 778 776 761 759 758 755 760 757 751 761 769 761 756 764 756 741 751 772 775 762 766 788 783 766 777 788 785 786 785 786 782 772 771 776 780 782 776 773 776 774 773 778
785 783 780 779 779 780 780 781 783 784 782 784 794 792 778 767 759 757 757 757 760 759 766 777 774 772 773 770 772 772 767 768 769 770 771 772 773 772 772 772 769 768 768 771 773 769 776 780 764 759 766 758 752 757 753 751 759 764 766 760 745 743 757 773 788 785 784 797 783 759 769 784 790 797 793 790 790 779 773 778 784 786 783 780 779 777 775 775
785 782 778 775 778 779 779 781 782 782 781 786 792 785 772 761 753 753 756 758 760 762 769 775 769 767 771 769 767 766 769 772 771 771 770 771 775 772 769 772 771 768 765 765 770 767 772 784 771 757 766 759 749 761 765 752 750 756 758 751 753 771 780 780 793 799 795 797 787 764 759 772 788 798 796 794 794 786 778 780 787 791 791 787 782 781 779 777
784 781 776 774 776 778 779 782 781 780 784 789 790 782 770 762 754 752 755 757 761 766 770 769 763 765 768 764 760 761 767 770 769 771 771 772 777 772 766 770 771 769 766 764 770 768 767 783 782 761 757 758 757 766 771 763 754 752 754 751 754 769 777 777 783 790 792 796 793 776 771 789 802 797 796 797 791 786 784 784 787 790 791 791 786 785 783 781
780 778 775 773 775 778 778 780 780 782 786 785 780 772 763 758 755 753 754 757 759 763 767 764 762 767 768 762 760 761 764 767 765 767 769 770 776 773 765 768 771 769 767 766 769 768 767 779 784 768 755 760 767 764 762 765 764 763 767 765 762 764 764 769 774 776 783 796 798 789 793 811 808 791 792 793 786 784 784 784 787 785 787 790 788 787 785 782
778 778 775 772 775 776 777 782 782 781 782 778 771 765 758 755 755 754 755 756 756 757 759 761 762 764 766 765 764 761 763 768 767 766 768 767 772 775 767 764 768 769 769 769 769 770 773 778 780 773 764 766 770 759 753 760 764 768 772 769 771 773 774 788 793 774 766 779 787 788 800 813 802 786 787 786 783 783 780 781 786 784 786 789 786 786 785 783
779 779 775 772 775 774 776 782 780 775 776 772 765 759 756 756 757 756 756 758 759 757 756 761 763 762 763 764 762 761 764 770 769 767 768 764 764 770 769 764 766 768 770 771 768 767 773 779 783 780 769 765 765 759 757 760 759 765 770 766 768 772 779 799 807 786 773 776 772 771 788 805 798 785 784 784 782 782 779 779 782 783 786 786 784 785 784 781
776 774 772 773 774 772 777 783 778 773 771 763 756 753 755 760 761 758 757 759 762 760 760 763 763 763 763 760 760 763 765 768 768 765 766 763 762 765 766 765 767 768 770 771 769 770 776 782 789 785 771 762 759 756 757 759 763 770 769 764 768 772 773 783 788 784 788 789 781 778 790 804 800 786 782 784 782 781 781 781 782 783 784 784 784 785 784 782
775 771 768 772 774 773 779 782 776 772 768 761 759 758 756 759 760 758 759 761 759 760 764 764 760 760 760 757 759 763 764 769 770 767 767 767 766 765 764 766 769 768 769 771 771 776 782 784 789 794 789 779 775 774 772 769 771 772 767 765 770 772 772 775 776 780 791 792 790 795 802 804 797 787 784 784 782 783 785 784 784 784 783 784 785 783 783 783
778 773 767 769 772 773 776 773 766 766 765 763 766 764 761 761 758 755 757 757 754 755 760 760 756 756 756 758 762 762 760 766 769 767 768 769 767 766 765 767 769 766 767 773 771 773 781 783 786 799 803 799 800 800 790 779 773 769 766 769 773 773 775 781 784 791 799 795 792 802 812 811 802 794 794 793 789 788 789 788 788 787 785 785 785 784 785 786
781 776 771 769 769 771 772 766 763 767 764 762 766 764 764 764 758 753 755 756 752 751 756 754 751 755 759 761 767 768 764 765 766 767 771 771 768 767 767 768 769 768 771 776 774 774 781 783 783 792 797 793 795 792 780 775 777 774 772 772 774 775 775 780 790 797 798 795 796 802 810 814 813 810 807 801 795 794 794 793 793 792 791 789 789 789 789 789
781 776 772 773 773 773 772 768 767 768 763 762 765 763 763 764 759 754 756 757 752 751 755 754 752 759 764 764 769 771 766 766 767 769 773 770 763 763 768 769 768 772 776 777 775 777 785 787 781 784 788 782 779 777 771 773 779 777 776 776 776 777 777 782 791 792 791 799 806 805 806 811 816 818 816 807 800 799 799 798 798 797 796 795 794 795 795 794
779 775 769 772 777 776 773 769 766 765 763 762 763 761 762 763 760 757 757 757 753 752 758 761 758 760 760 760 767 770 767 770 772 772 773 770 764 765 773 773 769 772 777 775 771 775 787 787 774 774 782 777 772 773 772 773 776 776 778 779 778 779 780 784 787 784 787 800 804 801 803 809 812 813 812 807 803 803 803 801 801 800 798 798 799 799 800 799
776 776 769 770 775 772 768 766 765 765 764 762 763 762 762 763 760 754 752 757 759 755 758 764 763 759 756 755 762 768 768 772 777 775 772 771 767 768 774 776 772 770 773 774 771 773 785 785 773 774 782 778 773 774 773 774 777 778 780 780 779 780 780 782 784 782 785 795 796 795 801 810 813 809 805 804 803 802 802 802 803 803 802 802 802 803 804 803
782 783 778 777 777 771 767 767 767 769 766 765 768 765 761 762 761 753 747 753 762 760 758 762 760 755 754 753 758 765 763 764 771 771 769 772 772 769 772 773 769 768 771 773 772 774 784 788 779 780 788 782 774 773 774 775 778 779 781 780 779 781 780 782 786 785 787 793 794 797 806 813 813 808 803 803 803 801 803 805 805 806 806 804 805 808 808 806
786 786 785 787 783 774 771 768 767 771 770 768 769 765 762 762 758 753 746 744 752 756 753 756 757 752 751 752 754 757 753 753 761 760 758 765 768 766 768 766 765 770 773 772 774 776 783 786 781 784 794 785 772 775 778 774 776 780 780 779 780 781 783 784 786 787 790 792 794 804 813 812 807 806 805 804 803 805 807 807 806 807 807 805 807 811 812 810
788 786 784 788 785 777 773 770 768 771 770 765 763 762 763 759 751 752 752 746 746 747 742 744 750 750 753 754 752 749 746 746 750 748 747 752 754 755 760 760 761 767 769 771 776 778 780 783 781 784 793 783 771 777 779 778 788 791 779 774 777 778 780 784 785 786 786 787 795 806 812 806 802 807 811 808 806 808 810 809 808 809 810 809 810 813 814 812